GFSNIL_prec_precacc12_159.txt.gz
Total_Precipitation_Accumulation
0.09 0.05 0.03 0.01 0.01 0.01 0.06 0.06 0.02 0.05 0.03 0.04 0.05 0.02 0.06 0.06 0.05 0.09 0.05 0.03 0.02 0.01
0.02 0.01 0.00 0.01 0.01 0.00 0.03 0.06 0.31 0.19 0.12 0.05 0.02 0.00 0.08 0.12 0.04 0.06 0.05 0.06 0.06 0.07
0.00 0.00 0.00 0.02 0.04 0.01 0.06 0.09 1.01 0.75 0.12 0.08 0.08 0.06 0.18 0.12 0.13 0.10 0.06 0.07 0.16 0.11
0.03 0.01 0.01 0.02 0.01 0.02 0.05 0.13 0.21 0.29 0.08 0.12 0.06 0.04 0.20 0.19 0.13 0.13 0.08 0.08 0.10 0.03
0.05 0.04 0.03 0.01 0.00 0.00 0.02 0.02 0.04 0.05 0.09 0.15 0.10 0.08 0.17 0.13 0.04 0.11 0.14 0.10 0.07 0.02
0.07 0.02 0.04 0.01 0.00 0.00 0.02 0.02 0.01 0.05 0.15 0.14 0.08 0.07 0.07 0.17 0.08 0.06 0.08 0.07 0.15 0.16
0.14 0.06 0.01 0.00 0.00 0.01 0.01 0.01 0.01 0.04 0.07 0.07 0.07 0.07 0.07 0.19 0.13 0.06 0.07 0.13 0.19 0.09
0.28 0.18 0.14 0.07 0.04 0.00 0.01 0.00 0.00 0.03 0.02 0.02 0.02 0.07 0.11 0.10 0.04 0.10 0.10 0.17 0.12 0.13
0.56 0.79 0.42 0.22 0.17 0.15 0.08 0.03 0.00 0.00 0.00 0.02 0.01 0.01 0.01 0.03 0.08 0.12 0.13 0.15 0.17 0.34
0.45 0.53 0.38 0.18 0.16 0.16 0.09 0.13 0.04 0.01 0.01 0.01 0.03 0.00 0.00 0.00 0.12 0.13 0.09 0.13 0.12 0.25
0.60 0.52 0.45 0.29 0.19 0.18 0.22 0.13 0.16 0.16 0.11 0.08 0.05 0.05 0.04 0.05 0.08 0.07 0.08 0.11 0.08 0.13
0.26 0.50 0.58 0.59 0.58 0.57 0.54 0.44 0.28 0.26 0.33 0.22 0.12 0.21 0.17 0.18 0.06 0.04 0.06 0.04 0.04 0.05
0.06 0.12 0.20 0.38 0.49 0.51 0.52 0.53 0.58 0.59 0.58 0.62 0.53 0.69 0.56 0.38 0.17 0.11 0.06 0.01 0.02 0.02
0.03 0.04 0.04 0.08 0.25 0.37 0.46 0.39 0.34 0.37 0.80 0.70 0.72 0.74 0.68 0.51 0.36 0.33 0.09 0.05 0.01 0.01

GFSNIL_prec_precacc12_162.txt.gz
Total_Precipitation_Accumulation
0.05 0.02 0.03 0.00 0.01 0.01 0.06 0.06 0.02 0.06 0.03 0.04 0.05 0.02 0.06 0.05 0.03 0.05 0.03 0.02 0.00 0.00
0.02 0.01 0.02 0.01 0.01 0.01 0.04 0.07 0.32 0.20 0.11 0.03 0.03 0.01 0.06 0.08 0.03 0.03 0.04 0.04 0.04 0.03
0.02 0.02 0.00 0.01 0.06 0.03 0.10 0.09 0.99 0.71 0.07 0.03 0.02 0.05 0.07 0.06 0.08 0.06 0.03 0.05 0.12 0.09
0.04 0.02 0.04 0.05 0.03 0.04 0.06 0.13 0.18 0.24 0.04 0.05 0.01 0.02 0.13 0.06 0.08 0.09 0.04 0.06 0.08 0.04
0.14 0.07 0.05 0.03 0.07 0.04 0.03 0.03 0.06 0.07 0.07 0.10 0.02 0.04 0.15 0.08 0.03 0.09 0.11 0.08 0.07 0.02
0.12 0.06 0.04 0.01 0.02 0.03 0.02 0.02 0.02 0.04 0.06 0.03 0.01 0.02 0.04 0.12 0.06 0.05 0.04 0.05 0.12 0.13
0.19 0.12 0.04 0.01 0.00 0.01 0.01 0.01 0.01 0.02 0.03 0.01 0.00 0.01 0.01 0.05 0.01 0.02 0.04 0.08 0.16 0.11
0.31 0.21 0.19 0.12 0.07 0.03 0.02 0.01 0.00 0.00 0.01 0.01 0.00 0.00 0.00 0.00 0.01 0.05 0.06 0.13 0.09 0.12
0.58 0.85 0.46 0.24 0.20 0.23 0.13 0.08 0.04 0.01 0.00 0.01 0.00 0.00 0.00 0.00 0.00 0.01 0.09 0.11 0.15 0.27
0.52 0.60 0.40 0.19 0.20 0.25 0.21 0.17 0.08 0.02 0.01 0.00 0.00 0.00 0.00 0.00 0.00 0.01 0.04 0.09 0.10 0.19
0.78 0.65 0.54 0.31 0.21 0.20 0.28 0.21 0.19 0.19 0.16 0.09 0.04 0.05 0.04 0.03 0.02 0.02 0.05 0.10 0.08 0.12
0.31 0.62 0.77 0.77 0.70 0.64 0.71 0.63 0.38 0.32 0.41 0.32 0.13 0.30 0.33 0.38 0.07 0.03 0.06 0.04 0.03 0.03
0.06 0.11 0.22 0.52 0.74 0.74 0.74 0.77 0.83 0.77 0.72 0.79 0.56 0.79 0.71 0.49 0.26 0.18 0.08 0.00 0.01 0.01
0.02 0.03 0.04 0.07 0.26 0.50 0.66 0.61 0.54 0.61 0.99 0.88 0.93 0.91 0.86 0.73 0.64 0.53 0.20 0.06 0.04 0.05

GFSNIL_prec_precacc12_165.txt.gz
Total_Precipitation_Accumulation
0.04 0.02 0.02 0.00 0.04 0.04 0.07 0.07 0.04 0.06 0.03 0.04 0.05 0.03 0.07 0.05 0.05 0.07 0.05 0.04 0.01 0.00
0.02 0.01 0.02 0.01 0.01 0.01 0.05 0.11 0.36 0.20 0.11 0.03 0.03 0.01 0.07 0.07 0.06 0.05 0.03 0.05 0.05 0.01
0.02 0.02 0.00 0.01 0.06 0.03 0.10 0.10 0.93 0.70 0.06 0.06 0.07 0.02 0.04 0.06 0.08 0.07 0.04 0.09 0.08 0.06
0.05 0.02 0.04 0.05 0.03 0.04 0.06 0.14 0.15 0.24 0.03 0.05 0.02 0.02 0.05 0.06 0.08 0.10 0.03 0.06 0.08 0.05
0.15 0.08 0.05 0.03 0.07 0.04 0.03 0.03 0.07 0.07 0.06 0.07 0.04 0.03 0.07 0.06 0.05 0.07 0.06 0.07 0.08 0.05
0.12 0.08 0.05 0.01 0.02 0.03 0.02 0.02 0.04 0.06 0.05 0.04 0.02 0.03 0.05 0.08 0.06 0.06 0.02 0.04 0.04 0.04
0.19 0.13 0.05 0.01 0.00 0.01 0.01 0.01 0.01 0.02 0.03 0.01 0.01 0.01 0.01 0.02 0.02 0.02 0.03 0.05 0.06 0.07
0.31 0.23 0.21 0.13 0.07 0.03 0.02 0.01 0.00 0.00 0.01 0.01 0.00 0.00 0.00 0.00 0.00 0.00 0.02 0.08 0.06 0.08
0.58 0.85 0.48 0.28 0.21 0.21 0.12 0.08 0.04 0.01 0.00 0.01 0.00 0.00 0.00 0.00 0.00 0.01 0.05 0.05 0.12 0.22
0.50 0.59 0.40 0.21 0.23 0.24 0.19 0.17 0.08 0.02 0.01 0.00 0.00 0.00 0.00 0.00 0.00 0.00 0.03 0.06 0.09 0.13
0.71 0.60 0.51 0.31 0.20 0.19 0.27 0.17 0.15 0.19 0.17 0.10 0.04 0.06 0.04 0.04 0.02 0.01 0.02 0.06 0.09 0.13
0.21 0.59 0.73 0.74 0.66 0.57 0.63 0.52 0.31 0.23 0.33 0.25 0.09 0.30 0.40 0.48 0.11 0.01 0.04 0.04 0.06 0.07
0.03 0.07 0.16 0.47 0.66 0.60 0.58 0.62 0.74 0.70 0.72 0.79 0.50 0.83 0.84 0.70 0.35 0.18 0.09 0.00 0.02 0.01
0.00 0.02 0.03 0.06 0.23 0.40 0.52 0.65 0.77 0.69 0.99 0.88 0.94 0.94 1.02 0.98 0.90 0.76 0.41 0.11 0.04 0.06

GFSNIL_prec_precacc12_168.txt.gz
Total_Precipitation_Accumulation
0.03 0.01 0.01 0.00 0.04 0.04 0.04 0.06 0.03 0.05 0.03 0.02 0.00 0.02 0.05 0.03 0.03 0.04 0.04 0.04 0.01 0.00
0.02 0.01 0.02 0.00 0.01 0.01 0.04 0.07 0.19 0.15 0.11 0.02 0.02 0.01 0.04 0.04 0.04 0.03 0.04 0.06 0.03 0.02
0.02 0.02 0.00 0.00 0.02 0.02 0.07 0.05 0.33 0.40 0.05 0.05 0.07 0.02 0.02 0.04 0.03 0.03 0.04 0.10 0.05 0.06
0.05 0.02 0.04 0.05 0.02 0.02 0.03 0.03 0.01 0.03 0.02 0.05 0.02 0.02 0.01 0.01 0.01 0.03 0.02 0.04 0.05 0.04
0.15 0.08 0.05 0.03 0.07 0.03 0.00 0.01 0.03 0.04 0.01 0.03 0.04 0.01 0.03 0.05 0.05 0.03 0.03 0.01 0.01 0.04
0.12 0.08 0.05 0.01 0.02 0.02 0.00 0.00 0.03 0.04 0.00 0.03 0.02 0.01 0.01 0.06 0.07 0.04 0.02 0.02 0.00 0.01
0.19 0.13 0.05 0.01 0.00 0.01 0.01 0.00 0.00 0.00 0.00 0.00 0.00 0.00 0.00 0.01 0.03 0.01 0.02 0.01 0.01 0.06
0.25 0.22 0.21 0.13 0.06 0.02 0.02 0.01 0.00 0.00 0.00 0.00 0.00 0.00 0.00 0.00 0.00 0.00 0.01 0.02 0.00 0.07
0.24 0.51 0.44 0.22 0.15 0.16 0.08 0.06 0.04 0.01 0.00 0.00 0.00 0.00 0.00 0.00 0.00 0.01 0.02 0.02 0.07 0.06
0.36 0.45 0.33 0.13 0.16 0.22 0.16 0.12 0.06 0.02 0.01 0.00 0.00 0.00 0.00 0.01 0.00 0.00 0.00 0.01 0.05 0.06
0.57 0.47 0.39 0.21 0.13 0.12 0.21 0.14 0.10 0.14 0.13 0.07 0.01 0.04 0.04 0.08 0.03 0.01 0.00 0.01 0.05 0.09
0.12 0.45 0.57 0.51 0.46 0.41 0.50 0.44 0.25 0.17 0.27 0.21 0.03 0.19 0.35 0.52 0.12 0.01 0.01 0.01 0.04 0.05
0.01 0.01 0.08 0.30 0.40 0.39 0.41 0.48 0.58 0.55 0.58 0.64 0.37 0.65 0.71 0.70 0.38 0.16 0.07 0.00 0.01 0.01
0.00 0.00 0.00 0.03 0.13 0.25 0.33 0.49 0.61 0.50 0.56 0.61 0.65 0.57 0.82 0.95 0.86 0.69 0.40 0.12 0.04 0.06

GFSNIL_prec_precacc12_174.txt.gz
Total_Precipitation_Accumulation
0.00 0.00 0.00 0.00 0.03 0.05 0.02 0.01 0.01 0.03 0.01 0.01 0.00 0.01 0.01 0.00 0.02 0.04 0.07 0.07 0.04 0.07
0.00 0.00 0.00 0.00 0.00 0.00 0.01 0.04 0.08 0.04 0.03 0.01 0.00 0.01 0.03 0.01 0.04 0.06 0.05 0.09 0.05 0.07
0.00 0.00 0.00 0.00 0.00 0.00 0.01 0.03 0.01 0.03 0.05 0.11 0.11 0.08 0.04 0.04 0.02 0.05 0.05 0.14 0.10 0.08
0.01 0.00 0.00 0.00 0.00 0.00 0.00 0.01 0.00 0.00 0.00 0.08 0.13 0.11 0.09 0.08 0.05 0.04 0.06 0.09 0.11 0.09
0.01 0.01 0.00 0.00 0.00 0.00 0.00 0.00 0.01 0.01 0.00 0.04 0.13 0.11 0.14 0.15 0.10 0.18 0.13 0.11 0.08 0.10
0.00 0.01 0.00 0.00 0.00 0.00 0.00 0.00 0.01 0.02 0.00 0.03 0.03 0.03 0.09 0.16 0.16 0.09 0.08 0.08 0.06 0.04
0.00 0.01 0.00 0.00 0.00 0.00 0.00 0.00 0.00 0.00 0.00 0.00 0.00 0.00 0.00 0.03 0.10 0.09 0.02 0.02 0.03 0.06
0.00 0.02 0.01 0.01 0.00 0.00 0.00 0.00 0.00 0.00 0.00 0.00 0.00 0.00 0.00 0.00 0.01 0.04 0.04 0.02 0.01 0.03
0.02 0.02 0.03 0.04 0.02 0.00 0.00 0.00 0.00 0.00 0.00 0.00 0.00 0.00 0.00 0.00 0.00 0.00 0.01 0.01 0.02 0.01
0.01 0.01 0.03 0.06 0.04 0.01 0.00 0.01 0.01 0.00 0.01 0.00 0.00 0.00 0.00 0.01 0.00 0.00 0.00 0.00 0.01 0.01
0.00 0.00 0.00 0.01 0.02 0.04 0.05 0.02 0.01 0.02 0.05 0.07 0.02 0.03 0.02 0.05 0.02 0.00 0.00 0.01 0.04 0.04
0.01 0.07 0.04 0.02 0.02 0.03 0.02 0.02 0.01 0.01 0.02 0.05 0.04 0.13 0.12 0.17 0.05 0.00 0.00 0.01 0.04 0.05
0.00 0.00 0.01 0.05 0.04 0.02 0.02 0.02 0.03 0.04 0.08 0.09 0.04 0.15 0.22 0.30 0.15 0.02 0.02 0.01 0.01 0.03
0.00 0.00 0.00 0.00 0.01 0.03 0.05 0.17 0.30 0.15 0.10 0.09 0.07 0.10 0.29 0.37 0.30 0.25 0.22 0.07 0.02 0.05